Year,Month,Day,Hour,Minute,Value (Times are PST for temperature in C)
2007,07,11,00,00,24.20
2007,07,11,00,01,24.10
2007,07,11,00,02,24.10
2007,07,11,00,03,24.10
2007,07,11,00,04,23.90
2007,07,11,00,05,23.90
2007,07,11,00,06,23.90
2007,07,11,00,07,23.80
2007,07,11,00,08,23.40
2007,07,11,00,09,23.30
2007,07,11,00,10,23.30
2007,07,11,00,11,23.20
2007,07,11,00,12,23.10
2007,07,11,00,13,23.10
2007,07,11,00,14,23.00
2007,07,11,00,15,22.90
2007,07,11,00,16,22.90
2007,07,11,00,17,22.80
2007,07,11,00,18,22.70
2007,07,11,00,19,22.60
2007,07,11,00,20,22.50
2007,07,11,00,21,22.30
2007,07,11,00,22,22.20
2007,07,11,00,23,22.10
2007,07,11,00,24,22.00
2007,07,11,00,25,21.90
2007,07,11,00,26,21.80
2007,07,11,00,27,21.60
2007,07,11,00,28,21.60
2007,07,11,00,29,21.60
2007,07,11,00,30,21.40
2007,07,11,00,31,21.40
2007,07,11,00,32,21.30
2007,07,11,00,33,21.30
2007,07,11,00,34,21.30
2007,07,11,00,35,21.20
2007,07,11,00,36,21.20
2007,07,11,00,37,21.10
2007,07,11,00,38,21.10
2007,07,11,00,39,21.00
2007,07,11,00,40,21.00
2007,07,11,00,41,21.00
2007,07,11,00,42,21.10
2007,07,11,00,43,21.10
2007,07,11,00,44,21.20
2007,07,11,00,45,21.20
2007,07,11,00,46,21.30
2007,07,11,00,47,21.30
2007,07,11,00,48,21.40
2007,07,11,00,49,21.40
2007,07,11,00,50,21.50
2007,07,11,00,51,21.60
2007,07,11,00,52,21.60
2007,07,11,00,53,21.60
2007,07,11,00,54,21.60
2007,07,11,00,55,21.60
2007,07,11,00,56,21.60
2007,07,11,00,57,21.60
2007,07,11,00,58,21.60
2007,07,11,00,59,21.60
2007,07,11,01,00,21.60
2007,07,11,01,01,21.60
2007,07,11,01,02,21.60
2007,07,11,01,03,21.60
2007,07,11,01,04,21.60
2007,07,11,01,05,21.60
2007,07,11,01,06,21.60
2007,07,11,01,07,21.60
2007,07,11,01,08,21.60
2007,07,11,01,09,21.60
2007,07,11,01,10,21.60
2007,07,11,01,11,21.70
2007,07,11,01,12,21.70
2007,07,11,01,13,21.70
2007,07,11,01,14,21.80
2007,07,11,01,15,21.80
2007,07,11,01,16,21.90
2007,07,11,01,17,21.90
2007,07,11,01,18,21.80
2007,07,11,01,19,21.80
2007,07,11,01,20,21.80
2007,07,11,01,21,21.80
2007,07,11,01,22,21.80
2007,07,11,01,23,21.70
2007,07,11,01,24,21.70
2007,07,11,01,25,21.80
2007,07,11,01,26,21.80
2007,07,11,01,27,21.80
2007,07,11,01,28,21.80
2007,07,11,01,29,21.90
2007,07,11,01,30,21.90
2007,07,11,01,31,21.90
2007,07,11,01,32,21.90
2007,07,11,01,33,21.90
2007,07,11,01,34,21.90
2007,07,11,01,35,21.90
2007,07,11,01,36,21.90
2007,07,11,01,37,21.90
2007,07,11,01,38,21.80
2007,07,11,01,39,21.80
2007,07,11,01,40,21.80
2007,07,11,01,41,21.80
2007,07,11,01,42,21.80
2007,07,11,01,43,21.80
2007,07,11,01,44,21.80
2007,07,11,01,45,21.80
2007,07,11,01,46,21.90
2007,07,11,01,47,21.90
2007,07,11,01,48,21.90
2007,07,11,01,49,21.80
2007,07,11,01,50,21.80
2007,07,11,01,51,21.90
2007,07,11,01,52,21.90
2007,07,11,01,53,21.90
2007,07,11,01,54,21.90
2007,07,11,01,55,21.90
2007,07,11,01,56,21.90
2007,07,11,01,57,21.90
2007,07,11,01,58,21.90
2007,07,11,01,59,21.80
2007,07,11,02,00,21.80
2007,07,11,02,01,21.80
2007,07,11,02,02,21.70
2007,07,11,02,03,21.70
2007,07,11,02,04,21.60
2007,07,11,02,05,21.60
2007,07,11,02,06,21.60
2007,07,11,02,07,21.60
2007,07,11,02,08,21.60
2007,07,11,02,09,21.60
2007,07,11,02,10,21.50
2007,07,11,02,11,21.40
2007,07,11,02,12,21.60
2007,07,11,02,13,21.60
2007,07,11,02,14,21.70
2007,07,11,02,15,21.80
2007,07,11,02,16,22.00
2007,07,11,02,17,22.00
2007,07,11,02,18,22.10
2007,07,11,02,19,22.10
2007,07,11,02,20,22.20
2007,07,11,02,21,22.20
2007,07,11,02,22,22.30
2007,07,11,02,23,22.40
2007,07,11,02,24,22.50
2007,07,11,02,25,22.60
2007,07,11,02,26,22.70
2007,07,11,02,27,22.70
2007,07,11,02,28,22.80
2007,07,11,02,29,22.80
2007,07,11,02,30,22.80
2007,07,11,02,31,22.80
2007,07,11,02,32,22.90
2007,07,11,02,33,22.90
2007,07,11,02,34,22.80
2007,07,11,02,35,22.80
2007,07,11,02,36,22.70
2007,07,11,02,37,22.70
2007,07,11,02,38,22.60
2007,07,11,02,39,22.50
2007,07,11,02,40,22.40
2007,07,11,02,41,22.40
2007,07,11,02,42,22.30
2007,07,11,02,43,22.30
2007,07,11,02,44,22.20
2007,07,11,02,45,22.20
2007,07,11,02,46,22.30
2007,07,11,02,47,22.30
2007,07,11,02,48,22.40
2007,07,11,02,49,22.50
2007,07,11,02,50,22.60
2007,07,11,02,51,22.60
2007,07,11,02,52,22.60
2007,07,11,02,53,22.70
2007,07,11,02,54,22.70
2007,07,11,02,55,22.70
2007,07,11,02,56,22.90
2007,07,11,02,57,22.90
2007,07,11,02,58,23.00
2007,07,11,02,59,23.20
2007,07,11,03,00,23.30
2007,07,11,03,01,23.30
2007,07,11,03,02,23.30
2007,07,11,03,03,23.30
2007,07,11,03,04,23.30
2007,07,11,03,05,23.30
2007,07,11,03,06,23.30
2007,07,11,03,07,23.30
2007,07,11,03,08,23.40
2007,07,11,03,09,23.30
2007,07,11,03,10,23.30
2007,07,11,03,11,23.30
2007,07,11,03,12,23.30
2007,07,11,03,13,23.30
2007,07,11,03,14,23.20
2007,07,11,03,15,23.10
2007,07,11,03,16,23.00
2007,07,11,03,17,22.90
2007,07,11,03,18,22.90
2007,07,11,03,19,22.80
2007,07,11,03,20,22.80
2007,07,11,03,21,22.70
2007,07,11,03,22,22.70
2007,07,11,03,23,22.70
2007,07,11,03,24,22.60
2007,07,11,03,25,22.60
2007,07,11,03,26,22.60
2007,07,11,03,27,22.60
2007,07,11,03,28,22.50
2007,07,11,03,29,22.50
2007,07,11,03,30,22.50
2007,07,11,03,31,22.50
2007,07,11,03,32,22.50
2007,07,11,03,33,22.50
2007,07,11,03,34,22.50
2007,07,11,03,35,22.50
2007,07,11,03,36,22.50
2007,07,11,03,37,22.60
2007,07,11,03,38,22.60
2007,07,11,03,39,22.70
2007,07,11,03,40,22.70
2007,07,11,03,41,22.80
2007,07,11,03,42,22.80
2007,07,11,03,43,22.80
2007,07,11,03,44,22.80
2007,07,11,03,45,22.80
2007,07,11,03,46,22.80
2007,07,11,03,47,22.80
2007,07,11,03,48,22.70
2007,07,11,03,49,22.70
2007,07,11,03,50,22.70
2007,07,11,03,51,22.60
2007,07,11,03,52,22.60
2007,07,11,03,53,22.60
2007,07,11,03,54,22.60
2007,07,11,03,55,22.50
2007,07,11,03,56,22.50
2007,07,11,03,57,22.40
2007,07,11,03,58,22.30
2007,07,11,03,59,22.30
2007,07,11,04,00,22.20
2007,07,11,04,01,22.10
2007,07,11,04,02,22.00
2007,07,11,04,03,21.90
2007,07,11,04,04,21.70
2007,07,11,04,05,21.60
2007,07,11,04,06,21.60
2007,07,11,04,07,21.60
2007,07,11,04,08,21.60
2007,07,11,04,09,21.50
2007,07,11,04,10,21.40
2007,07,11,04,11,21.30
2007,07,11,04,12,21.30
2007,07,11,04,13,21.30
2007,07,11,04,14,21.30
2007,07,11,04,15,21.30
2007,07,11,04,16,21.30
2007,07,11,04,17,21.30
2007,07,11,04,18,21.30
2007,07,11,04,19,21.40
2007,07,11,04,20,21.40
2007,07,11,04,21,21.40
2007,07,11,04,22,21.40
2007,07,11,04,23,21.40
2007,07,11,04,24,21.40
2007,07,11,04,25,21.30
2007,07,11,04,26,21.30
2007,07,11,04,27,21.30
2007,07,11,04,28,21.30
2007,07,11,04,29,21.30
2007,07,11,04,30,21.30
2007,07,11,04,31,21.30
2007,07,11,04,32,21.30
2007,07,11,04,33,21.30
2007,07,11,04,34,21.30
2007,07,11,04,35,21.30
2007,07,11,04,36,21.30
2007,07,11,04,37,21.30
2007,07,11,04,38,21.30
2007,07,11,04,39,21.30
2007,07,11,04,40,21.30
2007,07,11,04,41,21.30
2007,07,11,04,42,21.20
2007,07,11,04,43,21.20
2007,07,11,04,44,21.20
2007,07,11,04,45,21.20
2007,07,11,04,46,21.20
2007,07,11,04,47,21.10
2007,07,11,04,48,21.10
2007,07,11,04,49,21.10
2007,07,11,04,50,21.10
2007,07,11,04,51,21.10
2007,07,11,04,52,21.10
2007,07,11,04,53,21.10
2007,07,11,04,54,21.10
2007,07,11,04,55,21.10
2007,07,11,04,56,21.10
2007,07,11,04,57,21.10
2007,07,11,04,58,21.10
2007,07,11,04,59,21.10
2007,07,11,05,00,21.10
2007,07,11,05,01,21.10
2007,07,11,05,02,21.10
2007,07,11,05,03,21.20
2007,07,11,05,04,21.20
2007,07,11,05,05,21.30
2007,07,11,05,06,21.30
2007,07,11,05,07,21.30
2007,07,11,05,08,21.30
2007,07,11,05,09,21.30
2007,07,11,05,10,21.30
2007,07,11,05,11,21.30
2007,07,11,05,12,21.30
2007,07,11,05,13,21.30
2007,07,11,05,14,21.30
2007,07,11,05,15,21.30
2007,07,11,05,16,21.30
2007,07,11,05,17,21.30
2007,07,11,05,18,21.30
2007,07,11,05,19,21.20
2007,07,11,05,20,21.10
2007,07,11,05,21,21.00
2007,07,11,05,22,21.00
2007,07,11,05,23,20.90
2007,07,11,05,24,20.80
2007,07,11,05,25,20.80
2007,07,11,05,26,20.70
2007,07,11,05,27,20.60
2007,07,11,05,28,20.60
2007,07,11,05,29,20.50
2007,07,11,05,30,20.50
2007,07,11,05,31,20.40
2007,07,11,05,32,20.40
2007,07,11,05,33,20.30
2007,07,11,05,34,20.30
2007,07,11,05,35,20.30
2007,07,11,05,36,20.20
2007,07,11,05,37,20.20
2007,07,11,05,38,20.20
2007,07,11,05,39,20.20
2007,07,11,05,40,20.20
2007,07,11,05,41,20.20
2007,07,11,05,42,20.20
2007,07,11,05,43,20.20
2007,07,11,05,44,20.10
2007,07,11,05,45,20.10
2007,07,11,05,46,20.10
2007,07,11,05,47,19.90
2007,07,11,05,48,19.90
2007,07,11,05,49,19.90
2007,07,11,05,50,19.90
2007,07,11,05,51,19.90
2007,07,11,05,52,19.90
2007,07,11,05,53,19.90
2007,07,11,05,54,19.90
2007,07,11,05,55,19.80
2007,07,11,05,56,19.60
2007,07,11,05,57,19.50
2007,07,11,05,58,19.30
2007,07,11,05,59,19.10
2007,07,11,06,00,19.10
2007,07,11,06,01,19.00
2007,07,11,06,02,18.80
2007,07,11,06,03,18.50
2007,07,11,06,04,18.30
2007,07,11,06,05,18.20
2007,07,11,06,06,17.90
2007,07,11,06,07,17.80
2007,07,11,06,08,17.70
2007,07,11,06,09,17.60
2007,07,11,06,10,17.50
2007,07,11,06,11,17.40
2007,07,11,06,12,17.40
2007,07,11,06,13,17.40
2007,07,11,06,14,17.40
2007,07,11,06,15,17.30
2007,07,11,06,16,17.30
2007,07,11,06,17,17.30
2007,07,11,06,18,17.20
2007,07,11,06,19,17.20
2007,07,11,06,20,17.20
2007,07,11,06,21,17.20
2007,07,11,06,22,17.20
2007,07,11,06,23,17.20
2007,07,11,06,24,17.20
2007,07,11,06,25,17.20
2007,07,11,06,26,17.20
2007,07,11,06,27,17.20
2007,07,11,06,28,17.30
2007,07,11,06,29,17.30
2007,07,11,06,30,17.30
2007,07,11,06,31,17.30
2007,07,11,06,32,17.40
2007,07,11,06,33,17.40
2007,07,11,06,34,17.50
2007,07,11,06,35,17.50
2007,07,11,06,36,17.50
2007,07,11,06,37,17.60
2007,07,11,06,38,17.70
2007,07,11,06,39,17.70
2007,07,11,06,40,17.70
2007,07,11,06,41,17.90
2007,07,11,06,42,17.90
2007,07,11,06,43,18.00
2007,07,11,06,44,18.10
2007,07,11,06,45,18.20
2007,07,11,06,46,18.30
2007,07,11,06,47,18.40
2007,07,11,06,48,18.60
2007,07,11,06,49,18.70
2007,07,11,06,50,18.80
2007,07,11,06,51,18.90
2007,07,11,06,52,19.00
2007,07,11,06,53,19.10
2007,07,11,06,54,19.20
2007,07,11,06,55,19.30
2007,07,11,06,56,19.40
2007,07,11,06,57,19.50
2007,07,11,06,58,19.70
2007,07,11,06,59,19.80
2007,07,11,07,00,19.90
2007,07,11,07,01,20.10
2007,07,11,07,02,20.30
2007,07,11,07,03,20.40
2007,07,11,07,04,20.60
2007,07,11,07,05,20.70
2007,07,11,07,06,20.90
2007,07,11,07,07,21.00
2007,07,11,07,08,21.20
2007,07,11,07,09,21.40
2007,07,11,07,10,21.50
2007,07,11,07,11,21.70
2007,07,11,07,12,21.80
2007,07,11,07,13,22.00
2007,07,11,07,14,22.10
2007,07,11,07,15,22.20
2007,07,11,07,16,22.30
2007,07,11,07,17,22.40
2007,07,11,07,18,22.50
2007,07,11,07,19,22.60
2007,07,11,07,20,22.70
2007,07,11,07,21,22.80
2007,07,11,07,22,22.90
2007,07,11,07,23,22.90
2007,07,11,07,24,22.90
2007,07,11,07,25,23.00
2007,07,11,07,26,23.20
2007,07,11,07,27,23.20
2007,07,11,07,28,23.30
2007,07,11,07,29,23.30
2007,07,11,07,30,23.30
2007,07,11,07,31,23.30
2007,07,11,07,32,23.20
2007,07,11,07,33,23.00
2007,07,11,07,34,22.90
2007,07,11,07,35,22.90
2007,07,11,07,36,22.90
2007,07,11,07,37,23.00
2007,07,11,07,38,23.10
2007,07,11,07,39,23.10
2007,07,11,07,40,23.20
2007,07,11,07,41,23.30
2007,07,11,07,42,23.40
2007,07,11,07,43,23.60
2007,07,11,07,44,23.70
2007,07,11,07,45,23.80
2007,07,11,07,46,23.90
2007,07,11,07,47,24.00
2007,07,11,07,48,24.10
2007,07,11,07,49,24.20
2007,07,11,07,50,24.20
2007,07,11,07,51,24.30
2007,07,11,07,52,24.30
2007,07,11,07,53,24.10
2007,07,11,07,54,24.10
2007,07,11,07,55,24.10
2007,07,11,07,56,24.10
2007,07,11,07,57,23.40
2007,07,11,07,58,22.70
2007,07,11,07,59,22.60
2007,07,11,08,00,22.50
2007,07,11,08,01,22.50
2007,07,11,08,02,22.50
2007,07,11,08,03,22.50
2007,07,11,08,04,22.50
2007,07,11,08,05,22.60
2007,07,11,08,06,22.60
2007,07,11,08,07,22.70
2007,07,11,08,08,22.70
2007,07,11,08,09,22.80
2007,07,11,08,10,22.80
2007,07,11,08,11,22.70
2007,07,11,08,12,22.70
2007,07,11,08,13,22.50
2007,07,11,08,14,22.40
2007,07,11,08,15,22.10
2007,07,11,08,16,21.90
2007,07,11,08,17,21.60
2007,07,11,08,18,21.40
2007,07,11,08,19,21.20
2007,07,11,08,20,21.10
2007,07,11,08,21,20.90
2007,07,11,08,22,20.50
2007,07,11,08,23,20.40
2007,07,11,08,24,20.30
2007,07,11,08,25,20.20
2007,07,11,08,26,20.20
2007,07,11,08,27,20.10
2007,07,11,08,28,20.10
2007,07,11,08,29,20.10
2007,07,11,08,30,20.20
2007,07,11,08,31,20.30
2007,07,11,08,32,20.50
2007,07,11,08,33,20.70
2007,07,11,08,34,20.90
2007,07,11,08,35,21.10
2007,07,11,08,36,21.30
2007,07,11,08,37,21.50
2007,07,11,08,38,21.70
2007,07,11,08,39,22.00
2007,07,11,08,40,22.20
2007,07,11,08,41,22.50
2007,07,11,08,42,22.70
2007,07,11,08,43,22.90
2007,07,11,08,44,23.10
2007,07,11,08,45,23.40
2007,07,11,08,46,23.70
2007,07,11,08,47,23.90
2007,07,11,08,48,24.10
2007,07,11,08,49,24.40
2007,07,11,08,50,24.60
2007,07,11,08,51,24.90
2007,07,11,08,52,24.70
2007,07,11,08,53,24.30
2007,07,11,08,54,23.60
2007,07,11,08,55,23.00
2007,07,11,08,56,22.50
2007,07,11,08,57,22.20
2007,07,11,08,58,22.00
2007,07,11,08,59,21.90
2007,07,11,09,00,21.70
2007,07,11,09,01,21.80
2007,07,11,09,02,21.90
2007,07,11,09,03,21.90
2007,07,11,09,04,21.70
2007,07,11,09,05,21.50
2007,07,11,09,06,21.40
2007,07,11,09,07,21.30
2007,07,11,09,08,21.30
2007,07,11,09,09,21.40
2007,07,11,09,10,21.50
2007,07,11,09,11,21.60
2007,07,11,09,12,21.60
2007,07,11,09,13,21.80
2007,07,11,09,14,22.00
2007,07,11,09,15,22.10
2007,07,11,09,16,22.30
2007,07,11,09,17,22.50
2007,07,11,09,18,22.80
2007,07,11,09,19,23.00
2007,07,11,09,20,23.30
2007,07,11,09,21,23.50
2007,07,11,09,22,23.70
2007,07,11,09,23,23.90
2007,07,11,09,24,24.20
2007,07,11,09,25,24.40
2007,07,11,09,26,24.50
2007,07,11,09,27,24.90
2007,07,11,09,28,25.10
2007,07,11,09,29,25.40
2007,07,11,09,30,25.60
2007,07,11,09,31,25.80
2007,07,11,09,32,26.10
2007,07,11,09,33,26.20
2007,07,11,09,34,26.50
2007,07,11,09,35,26.60
2007,07,11,09,36,26.80
2007,07,11,09,37,27.10
2007,07,11,09,38,27.30
2007,07,11,09,39,27.40
2007,07,11,09,40,27.60
2007,07,11,09,41,27.70
2007,07,11,09,42,27.70
2007,07,11,09,43,27.70
2007,07,11,09,44,28.00
2007,07,11,09,45,28.10
2007,07,11,09,46,28.20
2007,07,11,09,47,28.20
2007,07,11,09,48,27.70
2007,07,11,09,49,26.80
2007,07,11,09,50,25.90
2007,07,11,09,51,25.20
2007,07,11,09,52,24.70
2007,07,11,09,53,24.40
2007,07,11,09,54,24.20
2007,07,11,09,55,24.20
2007,07,11,09,56,24.30
2007,07,11,09,57,24.70
2007,07,11,09,58,25.10
2007,07,11,09,59,25.50
2007,07,11,10,00,25.90
2007,07,11,10,01,26.30
2007,07,11,10,02,26.80
2007,07,11,10,03,27.20
2007,07,11,10,04,27.40
2007,07,11,10,05,27.80
2007,07,11,10,06,28.00
2007,07,11,10,07,28.20
2007,07,11,10,08,28.40
2007,07,11,10,09,28.60
2007,07,11,10,10,28.70
2007,07,11,10,11,28.80
2007,07,11,10,12,28.90
2007,07,11,10,13,28.90
2007,07,11,10,14,29.00
2007,07,11,10,15,29.10
2007,07,11,10,16,29.20
2007,07,11,10,17,29.20
2007,07,11,10,18,29.20
2007,07,11,10,19,29.20
2007,07,11,10,20,29.30
2007,07,11,10,21,29.30
2007,07,11,10,22,29.00
2007,07,11,10,23,28.20
2007,07,11,10,24,27.20
2007,07,11,10,25,26.40
2007,07,11,10,26,25.60
2007,07,11,10,27,25.10
2007,07,11,10,28,24.70
2007,07,11,10,29,24.40
2007,07,11,10,30,24.30
2007,07,11,10,31,24.40
2007,07,11,10,32,24.40
2007,07,11,10,33,24.50
2007,07,11,10,34,24.70
2007,07,11,10,35,25.00
2007,07,11,10,36,25.30
2007,07,11,10,37,25.50
2007,07,11,10,38,25.80
2007,07,11,10,39,26.00
2007,07,11,10,40,26.30
2007,07,11,10,41,26.50
2007,07,11,10,42,26.70
2007,07,11,10,43,27.20
2007,07,11,10,44,27.70
2007,07,11,10,45,28.10
2007,07,11,10,46,28.20
2007,07,11,10,47,28.20
2007,07,11,10,48,28.90
2007,07,11,10,49,29.10
2007,07,11,10,50,29.30
2007,07,11,10,51,29.40
2007,07,11,10,52,29.30
2007,07,11,10,53,29.30
2007,07,11,10,54,29.00
2007,07,11,10,55,28.90
2007,07,11,10,56,28.80
2007,07,11,10,57,28.40
2007,07,11,10,58,27.90
2007,07,11,10,59,27.40
2007,07,11,11,00,27.10
2007,07,11,11,01,26.40
2007,07,11,11,02,25.70
2007,07,11,11,03,25.30
2007,07,11,11,04,24.90
2007,07,11,11,05,24.70
2007,07,11,11,06,24.70
2007,07,11,11,07,24.20
2007,07,11,11,08,23.90
2007,07,11,11,09,23.70
2007,07,11,11,10,23.70
2007,07,11,11,11,23.60
2007,07,11,11,12,23.70
2007,07,11,11,13,23.70
2007,07,11,11,14,23.80
2007,07,11,11,15,23.80
2007,07,11,11,16,23.70
2007,07,11,11,17,23.70
2007,07,11,11,18,23.70
2007,07,11,11,19,23.70
2007,07,11,11,20,23.80
2007,07,11,11,21,24.10
2007,07,11,11,22,24.30
2007,07,11,11,23,24.50
2007,07,11,11,24,24.70
2007,07,11,11,25,24.80
2007,07,11,11,26,24.90
2007,07,11,11,27,24.90
2007,07,11,11,28,25.10
2007,07,11,11,29,25.30
2007,07,11,11,30,25.50
2007,07,11,11,31,25.80
2007,07,11,11,32,26.20
2007,07,11,11,33,26.50
2007,07,11,11,34,26.80
2007,07,11,11,35,27.30
2007,07,11,11,36,27.70
2007,07,11,11,37,28.00
2007,07,11,11,38,28.30
2007,07,11,11,39,28.70
2007,07,11,11,40,28.80
2007,07,11,11,41,29.20
2007,07,11,11,42,29.50
2007,07,11,11,43,29.70
2007,07,11,11,44,29.80
2007,07,11,11,45,30.00
2007,07,11,11,46,30.20
2007,07,11,11,47,30.40
2007,07,11,11,48,30.50
2007,07,11,11,49,30.60
2007,07,11,11,50,30.80
2007,07,11,11,51,30.80
2007,07,11,11,52,30.90
2007,07,11,11,53,31.10
2007,07,11,11,54,31.20
2007,07,11,11,55,31.20
2007,07,11,11,56,31.20
2007,07,11,11,57,31.20
2007,07,11,11,58,31.30
2007,07,11,11,59,31.30
2007,07,11,12,00,31.40
2007,07,11,12,01,31.50
2007,07,11,12,02,31.60
2007,07,11,12,03,31.60
2007,07,11,12,04,31.60
2007,07,11,12,05,31.50
2007,07,11,12,06,31.40
2007,07,11,12,07,31.40
2007,07,11,12,08,31.30
2007,07,11,12,09,31.30
2007,07,11,12,10,31.40
2007,07,11,12,11,31.50
2007,07,11,12,12,31.60
2007,07,11,12,13,31.60
2007,07,11,12,14,31.80
2007,07,11,12,15,31.80
2007,07,11,12,16,31.90
2007,07,11,12,17,32.10
2007,07,11,12,18,32.10
2007,07,11,12,19,32.10
2007,07,11,12,20,32.20
2007,07,11,12,21,32.20
2007,07,11,12,22,32.20
2007,07,11,12,23,32.20
2007,07,11,12,24,32.10
2007,07,11,12,25,32.00
2007,07,11,12,26,31.90
2007,07,11,12,27,31.80
2007,07,11,12,28,31.40
2007,07,11,12,29,31.30
2007,07,11,12,30,31.00
2007,07,11,12,31,30.40
2007,07,11,12,32,30.00
2007,07,11,12,33,29.60
2007,07,11,12,34,29.50
2007,07,11,12,35,29.50
2007,07,11,12,36,28.80
2007,07,11,12,37,28.60
2007,07,11,12,38,28.60
2007,07,11,12,39,28.70
2007,07,11,12,40,28.80
2007,07,11,12,41,28.80
2007,07,11,12,42,28.40
2007,07,11,12,43,28.20
2007,07,11,12,44,28.20
2007,07,11,12,45,28.30
2007,07,11,12,46,28.10
2007,07,11,12,47,27.70
2007,07,11,12,48,27.30
2007,07,11,12,49,27.30
2007,07,11,12,50,27.30
2007,07,11,12,51,27.30
2007,07,11,12,52,27.50
2007,07,11,12,53,27.60
2007,07,11,12,54,27.70
2007,07,11,12,55,27.50
2007,07,11,12,56,27.30
2007,07,11,12,57,27.30
2007,07,11,12,58,27.30
2007,07,11,12,59,27.30
2007,07,11,13,00,27.40
2007,07,11,13,01,27.50
2007,07,11,13,02,27.60
2007,07,11,13,03,27.90
2007,07,11,13,04,28.00
2007,07,11,13,05,28.10
2007,07,11,13,06,28.20
2007,07,11,13,07,28.20
2007,07,11,13,08,28.10
2007,07,11,13,09,28.20
2007,07,11,13,10,28.40
2007,07,11,13,11,28.50
2007,07,11,13,12,28.60
2007,07,11,13,13,28.80
2007,07,11,13,14,28.90
2007,07,11,13,15,28.90
2007,07,11,13,16,29.60
2007,07,11,13,17,29.80
2007,07,11,13,18,30.00
2007,07,11,13,19,30.00
2007,07,11,13,20,29.80
2007,07,11,13,21,29.60
2007,07,11,13,22,29.30
2007,07,11,13,23,29.30
2007,07,11,13,24,29.30
2007,07,11,13,25,29.20
2007,07,11,13,26,29.20
2007,07,11,13,27,29.20
2007,07,11,13,28,29.20
2007,07,11,13,29,29.20
2007,07,11,13,30,29.10
2007,07,11,13,31,29.00
2007,07,11,13,32,28.90
2007,07,11,13,33,28.80
2007,07,11,13,34,28.80
2007,07,11,13,35,28.90
2007,07,11,13,36,28.90
2007,07,11,13,37,28.90
2007,07,11,13,38,28.80
2007,07,11,13,39,28.90
2007,07,11,13,40,29.00
2007,07,11,13,41,29.30
2007,07,11,13,42,29.50
2007,07,11,13,43,29.80
2007,07,11,13,44,30.10
2007,07,11,13,45,30.50
2007,07,11,13,46,30.90
2007,07,11,13,47,31.20
2007,07,11,13,48,31.50
2007,07,11,13,49,31.80
2007,07,11,13,50,32.10
2007,07,11,13,51,32.40
2007,07,11,13,52,32.50
2007,07,11,13,53,32.70
2007,07,11,13,54,32.80
2007,07,11,13,55,32.80
2007,07,11,13,56,32.20
2007,07,11,13,57,31.50
2007,07,11,13,58,30.70
2007,07,11,13,59,29.90
2007,07,11,14,00,29.30
2007,07,11,14,01,28.80
2007,07,11,14,02,28.40
2007,07,11,14,03,28.30
2007,07,11,14,04,28.20
2007,07,11,14,05,28.10
2007,07,11,14,06,28.00
2007,07,11,14,07,27.60
2007,07,11,14,08,27.40
2007,07,11,14,09,27.20
2007,07,11,14,10,26.90
